Regional Weather Roundup
Issued by NWS

Home | Current Version | Previous Version | Text Only | Print | Product List | Glossary On
Versions: 1 2 3 4 5 6 7 8 9 10 11 12 13 14 15 16 17 18 19 20 21 22 23 24 25 26 27 28 29 30 31 32 33 34 35 36 37 38 39 40 41 42 43 44 45 46 47 48 49 50
000
ASCA42 TJSJ 302110
RWRPR
PUERTO RICO/U.S. VIRGIN ISLANDS HOURLY WEATHER ROUNDUP
NATIONAL WEATHER SERVICE SAN JUAN PR
500 PM AST THU JUL 30 2015

PRZ001-004-302200-
PUERTO RICO

CITY           SKY/WX    TMP DP  RH WIND       PRES   REMARKS
SAN JUAN LMM   MOSUNNY   86  75  70 E16       30.00F HX  95
AGUADILLA      CLOUDY    82  75  78 E15       30.01F
$$

PRZ006-007-302200-
U.S. VIRGIN ISLANDS

CITY           SKY/WX    TMP DP  RH WIND       PRES   REMARKS
CHARLOTTE AMA  MOSUNNY   90  73  58 E15G22    29.99F HX  98
CHRISTIANSTED  MOSUNNY   88  73  62 E17       29.99F HX  96
$$

HOURLY WEATHER ROUNDUP FOR THE NEWS MEDIA

CITY           SKY/WX    TMP DP  RH WIND       PRES   REMARKS
ORLANDO        TSTM      77  75  93 N5        29.95R
NEW YORK       TSTM      78  73  84 S21G28    29.82
NEWARK         TSTM      78  75  90 S6        29.79F
CHICAGO        MOSUNNY   88  51  28 NW22      30.02F
HARTFORD       PTSUNNY   80  72  76 SW16G28   29.81F
BOSTON         CLOUDY    86  72  62 SW21G28   29.75F HX  92
DALLAS         MOSUNNY  102  63  27 VRB5      30.01F HX 104
PHILADELPHIA   TSTM      77  72  84 SW12      29.85
LOS ANGELES    FAIR      76  65  68 W14       30.00F
WASHINGTON DC  PTSUNNY   84  75  74 S5        29.86F HX  92



USA.gov is the U.S. government's official web portal to all federal, state and local government web resources and services.